Miscellaneous Local Product
Issued by NWS Hastings, NE

Home | Current Version | Previous Version | Graphics & Text | Print | Product List | Glossary On
Versions: 1 2 3 4 5 6 7 8 9 10 11 12 13 14 15 16 17 18 19 20 21 22 23 24 25 26 27 28 29 30 31 32 33 34 35 36 37 38 39 40 41 42 43 44 45 46 47 48 49 50
000
AXUS43 KGID 242202
MISGRI

GID CWA HOURLY WEATHER ROUNDUP
NATIONAL WEATHER SERVICE HASTINGS NE
400 PM CST SAT JAN 24 2015

NOTE: "FAIR" INDICATES FEW OR NO CLOUDS BELOW 12,000 FEET WITH NO
SIGNIFICANT WEATHER AND/OR OBSTRUCTIONS TO VISIBILITY.

...SOUTH CENTRAL NEBRASKA...

CITY           SKY/WX    TMP DP  RH WIND       PRES   REMARKS
GRAND ISLAND   CLOUDY    51  27  39 W10       29.74S
HASTINGS       CLOUDY    54  24  31 W15       29.75R
KEARNEY        CLOUDY    52  25  35 W12       29.76S
ORD            CLOUDY    53  29  39 W12       29.70F
YORK           CLOUDY    52  28  40 W16       29.72S
AURORA         CLOUDY    53  26  36 W14G21    29.73S
LEXINGTON      CLOUDY    53  26  34 W21G26    29.78S
HOLDREGE       CLOUDY    54  23  30 W15       29.78S
HEBRON         CLOUDY    54  21  27 W18       29.75S

...NEBRASKA PANHANDLE...

CITY           SKY/WX    TMP DP  RH WIND       PRES   REMARKS
CHADRON        PTSUNNY   46  35  65 NW17G28   29.86R
ALLIANCE       PTSUNNY   45  33  63 W20       29.88R
SCOTTSBLUFF    CLOUDY    46  28  49 W16       29.93S
SIDNEY         CLOUDY    48  26  42 NW29G37   29.90F

...WESTERN AND NORTH CENTRAL NEBRASKA...

CITY           SKY/WX    TMP DP  RH WIND       PRES   REMARKS
VALENTINE      CLOUDY    47  36  65 W13       29.72R
AINSWORTH      LGT RAIN  45  39  81 NW23G31   29.72R
ONEILL         CLOUDY    52  32  46 W15G21    29.66F
BROKEN BOW     LGT RAIN  53  30  41 NW22G28   29.74F
IMPERIAL       LGT RAIN  45  31  58 W13       29.87F
NORTH PLATTE   CLOUDY    51  28  41 W15       29.80F
MCCOOK         LGT RAIN  50  33  52 W14       29.84S

...EASTERN NEBRASKA...

CITY           SKY/WX    TMP DP  RH WIND       PRES   REMARKS
NORFOLK        CLOUDY    52  30  43 W9        29.65F
SO SIOUX CITY  CLOUDY    50  33  52 W5        29.64F
TEKAMAH        CLOUDY    50  34  54 W7        29.67S
COLUMBUS       CLOUDY    52  30  43 SW8       29.70F
ALBION         CLOUDY    52  28  39 W8        29.68F
OMAHA EPPLEY   CLOUDY    53  31  42 W8        29.68S
OFFUTT AFB     MOSUNNY   54  30  40 W12       29.68S
MILLARD        PTSUNNY   55  32  41 W10G17    29.69R
LINCOLN        PTSUNNY   55  29  36 W14       29.72R
NEBRASKA CITY  PTSUNNY   55  22  28 W15G21    29.70F
BEATRICE       MOSUNNY   55  28  36 SW16      29.71F
FALLS CITY     PTSUNNY   57  28  33 W15       29.72F

...NORTHERN KANSAS...

CITY           SKY/WX    TMP DP  RH WIND       PRES   REMARKS
GOODLAND       CLOUDY    53  22  29 NW18G28   29.92R
HILL CITY      PTSUNNY   58  22  24 NW17      29.84R
NORTON         MOCLDY    54  19  26 W14G23    29.82
PHILLIPSBURG   SUNNY     59  25  27 W22G29    29.82R
SMITH CENTER   SUNNY     55  23  28 W23G30    29.80R
BELOIT         MOSUNNY   63  25  23 W16G25    29.77F
HAYS           PTSUNNY   61  25  25 W18G24    29.84S
RUSSELL        PTSUNNY   61  25  25 W20       29.81S
CONCORDIA      PTSUNNY   58  26  29 W16       29.76F
SALINA         PTSUNNY   61  27  27 W17G26    29.80F
TOPEKA         PTSUNNY   57  28  33 W14       29.77F



USA.gov is the U.S. government's official web portal to all federal, state and local government web resources and services.